Year,Month,Day,Hour,Minute,Value (Times are PST for temperature in C)
2017,05,27,00,00,18.20
2017,05,27,00,01,18.20
2017,05,27,00,02,18.30
2017,05,27,00,03,18.30
2017,05,27,00,04,18.30
2017,05,27,00,05,18.30
2017,05,27,00,06,18.40
2017,05,27,00,07,18.40
2017,05,27,00,08,18.40
2017,05,27,00,09,18.40
2017,05,27,00,10,18.40
2017,05,27,00,11,18.40
2017,05,27,00,12,18.40
2017,05,27,00,13,18.40
2017,05,27,00,14,18.40
2017,05,27,00,15,18.40
2017,05,27,00,16,18.40
2017,05,27,00,17,18.50
2017,05,27,00,18,18.50
2017,05,27,00,19,18.50
2017,05,27,00,20,18.40
2017,05,27,00,21,18.40
2017,05,27,00,22,18.40
2017,05,27,00,23,18.40
2017,05,27,00,24,18.40
2017,05,27,00,25,18.40
2017,05,27,00,26,18.30
2017,05,27,00,27,18.30
2017,05,27,00,28,18.30
2017,05,27,00,29,18.30
2017,05,27,00,30,18.30
2017,05,27,00,31,18.30
2017,05,27,00,32,18.30
2017,05,27,00,33,18.30
2017,05,27,00,34,18.20
2017,05,27,00,35,18.20
2017,05,27,00,36,18.20
2017,05,27,00,37,18.20
2017,05,27,00,38,18.20
2017,05,27,00,39,18.20
2017,05,27,00,40,18.20
2017,05,27,00,41,18.20
2017,05,27,00,42,18.20
2017,05,27,00,43,18.20
2017,05,27,00,44,18.20
2017,05,27,00,45,18.20
2017,05,27,00,46,18.20
2017,05,27,00,47,18.20
2017,05,27,00,48,18.20
2017,05,27,00,49,18.30
2017,05,27,00,50,18.30
2017,05,27,00,51,18.30
2017,05,27,00,52,18.30
2017,05,27,00,53,18.30
2017,05,27,00,54,18.30
2017,05,27,00,55,18.30
2017,05,27,00,56,18.30
2017,05,27,00,57,18.30
2017,05,27,00,58,18.30
2017,05,27,00,59,18.30
2017,05,27,01,00,18.30
2017,05,27,01,01,18.30
2017,05,27,01,02,18.20
2017,05,27,01,03,18.20
2017,05,27,01,04,18.20
2017,05,27,01,05,18.20
2017,05,27,01,06,18.10
2017,05,27,01,07,18.10
2017,05,27,01,08,18.20
2017,05,27,01,09,18.20
2017,05,27,01,10,18.20
2017,05,27,01,11,18.20
2017,05,27,01,12,18.10
2017,05,27,01,13,18.10
2017,05,27,01,14,18.10
2017,05,27,01,15,18.10
2017,05,27,01,16,18.10
2017,05,27,01,17,18.10
2017,05,27,01,18,18.10
2017,05,27,01,19,18.10
2017,05,27,01,20,18.10
2017,05,27,01,21,18.10
2017,05,27,01,22,18.20
2017,05,27,01,23,18.20
2017,05,27,01,24,18.20
2017,05,27,01,25,18.20
2017,05,27,01,26,18.30
2017,05,27,01,27,18.30
2017,05,27,01,28,18.30
2017,05,27,01,29,18.30
2017,05,27,01,30,18.30
2017,05,27,01,31,18.30
2017,05,27,01,32,18.30
2017,05,27,01,33,18.30
2017,05,27,01,34,18.30
2017,05,27,01,35,18.20
2017,05,27,01,36,18.20
2017,05,27,01,37,18.20
2017,05,27,01,38,18.20
2017,05,27,01,39,18.20
2017,05,27,01,40,18.20
2017,05,27,01,41,18.20
2017,05,27,01,42,18.10
2017,05,27,01,43,18.10
2017,05,27,01,44,18.10
2017,05,27,01,45,18.10
2017,05,27,01,46,18.10
2017,05,27,01,47,18.10
2017,05,27,01,48,18.10
2017,05,27,01,49,18.00
2017,05,27,01,50,18.00
2017,05,27,01,51,18.00
2017,05,27,01,52,18.00
2017,05,27,01,53,18.00
2017,05,27,01,54,17.90
2017,05,27,01,55,17.90
2017,05,27,01,56,17.90
2017,05,27,01,57,17.90
2017,05,27,01,58,17.90
2017,05,27,01,59,17.90
2017,05,27,02,00,17.90
2017,05,27,02,01,17.90
2017,05,27,02,02,17.80
2017,05,27,02,03,17.80
2017,05,27,02,04,17.80
2017,05,27,02,05,17.80
2017,05,27,02,06,17.80
2017,05,27,02,07,17.70
2017,05,27,02,08,17.70
2017,05,27,02,09,17.70
2017,05,27,02,10,17.70
2017,05,27,02,11,17.70
2017,05,27,02,12,17.60
2017,05,27,02,13,17.60
2017,05,27,02,14,17.60
2017,05,27,02,15,17.60
2017,05,27,02,16,17.60
2017,05,27,02,17,17.60
2017,05,27,02,18,17.60
2017,05,27,02,19,17.50
2017,05,27,02,20,17.50
2017,05,27,02,21,17.50
2017,05,27,02,22,17.40
2017,05,27,02,23,17.40
2017,05,27,02,24,17.40
2017,05,27,02,25,17.40
2017,05,27,02,26,17.30
2017,05,27,02,27,17.30
2017,05,27,02,28,17.30
2017,05,27,02,29,17.20
2017,05,27,02,30,17.20
2017,05,27,02,31,17.20
2017,05,27,02,32,17.10
2017,05,27,02,33,17.10
2017,05,27,02,34,17.00
2017,05,27,02,35,17.00
2017,05,27,02,36,16.90
2017,05,27,02,37,16.90
2017,05,27,02,38,16.90
2017,05,27,02,39,16.80
2017,05,27,02,40,16.80
2017,05,27,02,41,16.80
2017,05,27,02,42,16.70
2017,05,27,02,43,16.70
2017,05,27,02,44,16.70
2017,05,27,02,45,16.70
2017,05,27,02,46,16.60
2017,05,27,02,47,16.60
2017,05,27,02,48,16.60
2017,05,27,02,49,16.50
2017,05,27,02,50,16.50
2017,05,27,02,51,16.40
2017,05,27,02,52,16.40
2017,05,27,02,53,16.30
2017,05,27,02,54,16.30
2017,05,27,02,55,16.30
2017,05,27,02,56,16.30
2017,05,27,02,57,16.30
2017,05,27,02,58,16.20
2017,05,27,02,59,16.20
2017,05,27,03,00,16.20
2017,05,27,03,01,16.20
2017,05,27,03,02,16.20
2017,05,27,03,03,16.20
2017,05,27,03,04,16.20
2017,05,27,03,05,16.20
2017,05,27,03,06,16.20
2017,05,27,03,07,16.20
2017,05,27,03,08,16.20
2017,05,27,03,09,16.20
2017,05,27,03,10,16.20
2017,05,27,03,11,16.20
2017,05,27,03,12,16.20
2017,05,27,03,13,16.20
2017,05,27,03,14,16.20
2017,05,27,03,15,16.20
2017,05,27,03,16,16.20
2017,05,27,03,17,16.20
2017,05,27,03,18,16.20
2017,05,27,03,19,16.20
2017,05,27,03,20,16.10
2017,05,27,03,21,16.10
2017,05,27,03,22,16.10
2017,05,27,03,23,16.10
2017,05,27,03,24,16.10
2017,05,27,03,25,16.10
2017,05,27,03,26,16.00
2017,05,27,03,27,16.00
2017,05,27,03,28,16.00
2017,05,27,03,29,16.00
2017,05,27,03,30,15.90
2017,05,27,03,31,15.90
2017,05,27,03,32,15.90
2017,05,27,03,33,15.90
2017,05,27,03,34,15.90
2017,05,27,03,35,15.80
2017,05,27,03,36,15.80
2017,05,27,03,37,15.80
2017,05,27,03,38,15.80
2017,05,27,03,39,15.80
2017,05,27,03,40,15.80
2017,05,27,03,41,15.80
2017,05,27,03,42,15.80
2017,05,27,03,43,15.80
2017,05,27,03,44,15.70
2017,05,27,03,45,15.70
2017,05,27,03,46,15.70
2017,05,27,03,47,15.70
2017,05,27,03,48,15.70
2017,05,27,03,49,15.70
2017,05,27,03,50,15.70
2017,05,27,03,51,15.80
2017,05,27,03,52,15.80
2017,05,27,03,53,15.80
2017,05,27,03,54,15.80
2017,05,27,03,55,15.80
2017,05,27,03,56,15.80
2017,05,27,03,57,15.80
2017,05,27,03,58,15.80
2017,05,27,03,59,15.80
2017,05,27,04,00,15.80
2017,05,27,04,01,15.80
2017,05,27,04,02,15.80
2017,05,27,04,03,15.80
2017,05,27,04,04,15.70
2017,05,27,04,05,15.70
2017,05,27,04,06,15.70
2017,05,27,04,07,15.70
2017,05,27,04,08,15.70
2017,05,27,04,09,15.80
2017,05,27,04,10,15.80
2017,05,27,04,11,15.80
2017,05,27,04,12,15.80
2017,05,27,04,13,15.80
2017,05,27,04,14,15.80
2017,05,27,04,15,15.80
2017,05,27,04,16,15.90
2017,05,27,04,17,15.90
2017,05,27,04,18,15.90
2017,05,27,04,19,15.90
2017,05,27,04,20,15.90
2017,05,27,04,21,15.90
2017,05,27,04,22,15.90
2017,05,27,04,23,15.90
2017,05,27,04,24,15.90
2017,05,27,04,25,15.90
2017,05,27,04,26,15.90
2017,05,27,04,27,15.90
2017,05,27,04,28,15.90
2017,05,27,04,29,15.90
2017,05,27,04,30,16.00
2017,05,27,04,31,16.00
2017,05,27,04,32,15.90
2017,05,27,04,33,15.90
2017,05,27,04,34,15.80
2017,05,27,04,35,15.80
2017,05,27,04,36,15.80
2017,05,27,04,37,15.70
2017,05,27,04,38,15.70
2017,05,27,04,39,15.60
2017,05,27,04,40,15.50
2017,05,27,04,41,15.50
2017,05,27,04,42,15.40
2017,05,27,04,43,15.40
2017,05,27,04,44,15.30
2017,05,27,04,45,15.30
2017,05,27,04,46,15.20
2017,05,27,04,47,15.20
2017,05,27,04,48,15.20
2017,05,27,04,49,15.10
2017,05,27,04,50,15.00
2017,05,27,04,51,15.00
2017,05,27,04,52,15.00
2017,05,27,04,53,15.00
2017,05,27,04,54,15.00
2017,05,27,04,55,15.00
2017,05,27,04,56,15.00
2017,05,27,04,57,15.00
2017,05,27,04,58,15.00
2017,05,27,04,59,15.00
2017,05,27,05,00,15.00
2017,05,27,05,01,15.00
2017,05,27,05,02,15.00
2017,05,27,05,03,15.00
2017,05,27,05,04,15.00
2017,05,27,05,05,14.80
2017,05,27,05,06,14.80
2017,05,27,05,07,14.70
2017,05,27,05,08,14.70
2017,05,27,05,09,14.60
2017,05,27,05,10,14.60
2017,05,27,05,11,14.60
2017,05,27,05,12,14.60
2017,05,27,05,13,14.60
2017,05,27,05,14,14.60
2017,05,27,05,15,14.60
2017,05,27,05,16,14.60
2017,05,27,05,17,14.60
2017,05,27,05,18,14.60
2017,05,27,05,19,14.60
2017,05,27,05,20,14.60
2017,05,27,05,21,14.60
2017,05,27,05,22,14.60
2017,05,27,05,23,14.60
2017,05,27,05,24,14.60
2017,05,27,05,25,14.50
2017,05,27,05,26,14.50
2017,05,27,05,27,14.50
2017,05,27,05,28,14.50
2017,05,27,05,29,14.50
2017,05,27,05,30,14.50
2017,05,27,05,31,14.40
2017,05,27,05,32,14.40
2017,05,27,05,33,14.40
2017,05,27,05,34,14.40
2017,05,27,05,35,14.40
2017,05,27,05,36,14.40
2017,05,27,05,37,14.40
2017,05,27,05,38,14.40
2017,05,27,05,39,14.50
2017,05,27,05,40,14.50
2017,05,27,05,41,14.50
2017,05,27,05,42,14.50
2017,05,27,05,43,14.50
2017,05,27,05,44,14.50
2017,05,27,05,45,14.60
2017,05,27,05,46,14.60
2017,05,27,05,47,14.60
2017,05,27,05,48,14.60
2017,05,27,05,49,14.70
2017,05,27,05,50,14.70
2017,05,27,05,51,14.70
2017,05,27,05,52,14.70
2017,05,27,05,53,14.70
2017,05,27,05,54,14.70
2017,05,27,05,55,14.70
2017,05,27,05,56,14.80
2017,05,27,05,57,14.80
2017,05,27,05,58,14.80
2017,05,27,05,59,14.80
2017,05,27,06,00,14.90
2017,05,27,06,01,14.90
2017,05,27,06,02,15.00
2017,05,27,06,03,15.00
2017,05,27,06,04,15.00
2017,05,27,06,05,15.00
2017,05,27,06,06,15.00
2017,05,27,06,07,15.00
2017,05,27,06,08,15.00
2017,05,27,06,09,15.00
2017,05,27,06,10,15.00
2017,05,27,06,11,15.00
2017,05,27,06,12,15.00
2017,05,27,06,13,15.00
2017,05,27,06,14,15.10
2017,05,27,06,15,15.10
2017,05,27,06,16,15.10
2017,05,27,06,17,15.20
2017,05,27,06,18,15.20
2017,05,27,06,19,15.20
2017,05,27,06,20,15.20
2017,05,27,06,21,15.20
2017,05,27,06,22,15.20
2017,05,27,06,23,15.20
2017,05,27,06,24,15.20
2017,05,27,06,25,15.20
2017,05,27,06,26,15.10
2017,05,27,06,27,15.10
2017,05,27,06,28,15.10
2017,05,27,06,29,15.10
2017,05,27,06,30,15.00
2017,05,27,06,31,15.00
2017,05,27,06,32,15.00
2017,05,27,06,33,15.00
2017,05,27,06,34,15.00
2017,05,27,06,35,15.00
2017,05,27,06,36,15.00
2017,05,27,06,37,15.10
2017,05,27,06,38,15.10
2017,05,27,06,39,15.10
2017,05,27,06,40,15.10
2017,05,27,06,41,15.20
2017,05,27,06,42,15.20
2017,05,27,06,43,15.20
2017,05,27,06,44,15.30
2017,05,27,06,45,15.30
2017,05,27,06,46,15.30
2017,05,27,06,47,15.30
2017,05,27,06,48,15.30
2017,05,27,06,49,15.40
2017,05,27,06,50,15.40
2017,05,27,06,51,15.40
2017,05,27,06,52,15.50
2017,05,27,06,53,15.60
2017,05,27,06,54,15.60
2017,05,27,06,55,15.70
2017,05,27,06,56,15.80
2017,05,27,06,57,15.90
2017,05,27,06,58,15.90
2017,05,27,06,59,15.90
2017,05,27,07,00,15.80
2017,05,27,07,01,15.80
2017,05,27,07,02,15.80
2017,05,27,07,03,15.80
2017,05,27,07,04,15.80
2017,05,27,07,05,15.80
2017,05,27,07,06,15.80
2017,05,27,07,07,15.80
2017,05,27,07,08,15.90
2017,05,27,07,09,15.90
2017,05,27,07,10,15.90
2017,05,27,07,11,15.90
2017,05,27,07,12,15.90
2017,05,27,07,13,15.90
2017,05,27,07,14,15.90
2017,05,27,07,15,15.90
2017,05,27,07,16,15.90
2017,05,27,07,17,15.90
2017,05,27,07,18,15.90
2017,05,27,07,19,15.90
2017,05,27,07,20,16.00
2017,05,27,07,21,16.00
2017,05,27,07,22,16.10
2017,05,27,07,23,16.20
2017,05,27,07,24,16.20
2017,05,27,07,25,16.30
2017,05,27,07,26,16.40
2017,05,27,07,27,16.40
2017,05,27,07,28,16.50
2017,05,27,07,29,16.50
2017,05,27,07,30,16.60
2017,05,27,07,31,16.60
2017,05,27,07,32,16.60
2017,05,27,07,33,16.60
2017,05,27,07,34,16.60
2017,05,27,07,35,16.60
2017,05,27,07,36,16.60
2017,05,27,07,37,16.70
2017,05,27,07,38,16.70
2017,05,27,07,39,16.80
2017,05,27,07,40,16.80
2017,05,27,07,41,16.90
2017,05,27,07,42,16.90
2017,05,27,07,43,17.00
2017,05,27,07,44,17.00
2017,05,27,07,45,17.10
2017,05,27,07,46,17.00
2017,05,27,07,47,17.00
2017,05,27,07,48,17.00
2017,05,27,07,49,16.90
2017,05,27,07,50,17.00
2017,05,27,07,51,17.00
2017,05,27,07,52,17.00
2017,05,27,07,53,17.10
2017,05,27,07,54,17.10
2017,05,27,07,55,17.10
2017,05,27,07,56,17.10
2017,05,27,07,57,17.10
2017,05,27,07,58,17.00
2017,05,27,07,59,17.00
2017,05,27,08,00,17.00
2017,05,27,08,01,17.00
2017,05,27,08,02,17.00
2017,05,27,08,03,17.00
2017,05,27,08,04,16.90
2017,05,27,08,05,16.90
2017,05,27,08,06,16.90
2017,05,27,08,07,16.90
2017,05,27,08,08,16.90
2017,05,27,08,09,16.90
2017,05,27,08,10,17.00
2017,05,27,08,11,17.10
2017,05,27,08,12,17.10
2017,05,27,08,13,17.20
2017,05,27,08,14,17.20
2017,05,27,08,15,17.20
2017,05,27,08,16,17.20
2017,05,27,08,17,17.30
2017,05,27,08,18,17.30
2017,05,27,08,19,17.30
2017,05,27,08,20,17.30
2017,05,27,08,21,17.30
2017,05,27,08,22,17.30
2017,05,27,08,23,17.30
2017,05,27,08,24,17.30
2017,05,27,08,25,17.30
2017,05,27,08,26,17.20
2017,05,27,08,27,17.20
2017,05,27,08,28,17.10
2017,05,27,08,29,17.00
2017,05,27,08,30,17.00
2017,05,27,08,31,17.00
2017,05,27,08,32,17.00
2017,05,27,08,33,16.90
2017,05,27,08,34,16.90
2017,05,27,08,35,16.90
2017,05,27,08,36,16.90
2017,05,27,08,37,17.00
2017,05,27,08,38,17.00
2017,05,27,08,39,17.10
2017,05,27,08,40,17.10
2017,05,27,08,41,17.10
2017,05,27,08,42,17.10
2017,05,27,08,43,17.10
2017,05,27,08,44,17.00
2017,05,27,08,45,17.00
2017,05,27,08,46,17.00
2017,05,27,08,47,17.00
2017,05,27,08,48,17.10
2017,05,27,08,49,17.10
2017,05,27,08,50,17.20
2017,05,27,08,51,17.20
2017,05,27,08,52,17.10
2017,05,27,08,53,17.10
2017,05,27,08,54,17.10
2017,05,27,08,55,17.10
2017,05,27,08,56,17.10
2017,05,27,08,57,17.20
2017,05,27,08,58,17.30
2017,05,27,08,59,17.40
2017,05,27,09,00,17.50
2017,05,27,09,01,17.50
2017,05,27,09,02,17.40
2017,05,27,09,03,17.30
2017,05,27,09,04,17.30
2017,05,27,09,05,17.20
2017,05,27,09,06,17.10
2017,05,27,09,07,17.10
2017,05,27,09,08,17.20
2017,05,27,09,09,17.20
2017,05,27,09,10,17.30
2017,05,27,09,11,17.30
2017,05,27,09,12,17.30
2017,05,27,09,13,17.30
2017,05,27,09,14,17.30
2017,05,27,09,15,17.30
2017,05,27,09,16,17.40
2017,05,27,09,17,17.50
2017,05,27,09,18,17.60
2017,05,27,09,19,17.60
2017,05,27,09,20,17.60
2017,05,27,09,21,17.60
2017,05,27,09,22,17.70
2017,05,27,09,23,17.70
2017,05,27,09,24,17.80
2017,05,27,09,25,17.80
2017,05,27,09,26,17.70
2017,05,27,09,27,17.70
2017,05,27,09,28,17.60
2017,05,27,09,29,17.60
2017,05,27,09,30,17.60
2017,05,27,09,31,17.60
2017,05,27,09,32,17.60
2017,05,27,09,33,17.60
2017,05,27,09,34,17.70
2017,05,27,09,35,17.70
2017,05,27,09,36,17.70
2017,05,27,09,37,17.70
2017,05,27,09,38,17.70
2017,05,27,09,39,17.70
2017,05,27,09,40,17.70
2017,05,27,09,41,17.70
2017,05,27,09,42,17.70
2017,05,27,09,43,17.70
2017,05,27,09,44,17.70
2017,05,27,09,45,17.80
2017,05,27,09,46,17.80
2017,05,27,09,47,17.90
2017,05,27,09,48,18.00
2017,05,27,09,49,18.00
2017,05,27,09,50,18.10
2017,05,27,09,51,18.10
2017,05,27,09,52,18.20
2017,05,27,09,53,18.30
2017,05,27,09,54,18.40
2017,05,27,09,55,18.40
2017,05,27,09,56,18.50
2017,05,27,09,57,18.50
2017,05,27,09,58,18.60
2017,05,27,09,59,18.60
2017,05,27,10,00,18.70
2017,05,27,10,01,18.70
2017,05,27,10,02,18.70
2017,05,27,10,03,18.70
2017,05,27,10,04,18.80
2017,05,27,10,05,18.90
2017,05,27,10,06,19.00
2017,05,27,10,07,19.10
2017,05,27,10,08,19.20
2017,05,27,10,09,19.10
2017,05,27,10,10,19.10
2017,05,27,10,11,19.10
2017,05,27,10,12,19.10
2017,05,27,10,13,19.10
2017,05,27,10,14,19.10
2017,05,27,10,15,19.00
2017,05,27,10,16,19.00
2017,05,27,10,17,19.10
2017,05,27,10,18,19.20
2017,05,27,10,19,19.20
2017,05,27,10,20,19.20
2017,05,27,10,21,19.30
2017,05,27,10,22,19.30
2017,05,27,10,23,19.20
2017,05,27,10,24,19.20
2017,05,27,10,25,19.10
2017,05,27,10,26,18.90
2017,05,27,10,27,18.90
2017,05,27,10,28,18.80
2017,05,27,10,29,18.80
2017,05,27,10,30,18.80
2017,05,27,10,31,18.80
2017,05,27,10,32,18.80
2017,05,27,10,33,19.00
2017,05,27,10,34,19.10
2017,05,27,10,35,19.20
2017,05,27,10,36,19.20
2017,05,27,10,37,19.20
2017,05,27,10,38,19.20
2017,05,27,10,39,19.20
2017,05,27,10,40,19.20
2017,05,27,10,41,19.20
2017,05,27,10,42,19.20
2017,05,27,10,43,19.00
2017,05,27,10,44,18.80
2017,05,27,10,45,18.80
2017,05,27,10,46,18.80
2017,05,27,10,47,18.80
2017,05,27,10,48,18.80
2017,05,27,10,49,18.90
2017,05,27,10,50,18.90
2017,05,27,10,51,18.90
2017,05,27,10,52,18.90
2017,05,27,10,53,18.90
2017,05,27,10,54,18.90
2017,05,27,10,55,19.00
2017,05,27,10,56,19.10
2017,05,27,10,57,19.00
2017,05,27,10,58,19.00
2017,05,27,10,59,19.10
2017,05,27,11,00,19.10
2017,05,27,11,01,19.10
2017,05,27,11,02,19.10
2017,05,27,11,03,19.00
2017,05,27,11,04,19.00
2017,05,27,11,05,18.90
2017,05,27,11,06,18.80
2017,05,27,11,07,18.80
2017,05,27,11,08,18.80
2017,05,27,11,09,18.80
2017,05,27,11,10,18.80
2017,05,27,11,11,18.80
2017,05,27,11,12,18.70
2017,05,27,11,13,18.60
2017,05,27,11,14,18.60
2017,05,27,11,15,18.70
2017,05,27,11,16,18.80
2017,05,27,11,17,18.90
2017,05,27,11,18,19.00
2017,05,27,11,19,18.90
2017,05,27,11,20,18.80
2017,05,27,11,21,18.80
2017,05,27,11,22,18.80
2017,05,27,11,23,18.80
2017,05,27,11,24,18.70
2017,05,27,11,25,18.70
2017,05,27,11,26,18.70
2017,05,27,11,27,18.70
2017,05,27,11,28,18.80
2017,05,27,11,29,18.90
2017,05,27,11,30,18.90
2017,05,27,11,31,18.90
2017,05,27,11,32,19.00
2017,05,27,11,33,18.90
2017,05,27,11,34,18.90
2017,05,27,11,35,18.90
2017,05,27,11,36,19.00
2017,05,27,11,37,19.10
2017,05,27,11,38,19.20
2017,05,27,11,39,19.30
2017,05,27,11,40,19.30
2017,05,27,11,41,19.30
2017,05,27,11,42,19.40
2017,05,27,11,43,19.40
2017,05,27,11,44,19.40
2017,05,27,11,45,19.50
2017,05,27,11,46,19.60
2017,05,27,11,47,19.70
2017,05,27,11,48,19.70
2017,05,27,11,49,19.90
2017,05,27,11,50,19.90
2017,05,27,11,51,19.90
2017,05,27,11,52,19.90
2017,05,27,11,53,19.90
2017,05,27,11,54,19.90
2017,05,27,11,55,19.80
2017,05,27,11,56,19.70
2017,05,27,11,57,19.70
2017,05,27,11,58,19.60
2017,05,27,11,59,19.60
2017,05,27,12,00,19.60
2017,05,27,12,01,19.60
2017,05,27,12,02,19.60
2017,05,27,12,03,19.70
2017,05,27,12,04,19.70
2017,05,27,12,05,19.70
2017,05,27,12,06,19.80
2017,05,27,12,07,19.80
2017,05,27,12,08,19.80
2017,05,27,12,09,19.80
2017,05,27,12,10,19.80
2017,05,27,12,11,19.80
2017,05,27,12,12,19.80
2017,05,27,12,13,19.80
2017,05,27,12,14,19.80
2017,05,27,12,15,19.80
2017,05,27,12,16,19.80
2017,05,27,12,17,19.80
2017,05,27,12,18,19.90
2017,05,27,12,19,19.90
2017,05,27,12,20,19.90
2017,05,27,12,21,19.90
2017,05,27,12,22,20.00
2017,05,27,12,23,20.00
2017,05,27,12,24,20.00
2017,05,27,12,25,20.10
2017,05,27,12,26,20.20
2017,05,27,12,27,20.20
2017,05,27,12,28,20.30
2017,05,27,12,29,20.40
2017,05,27,12,30,20.40
2017,05,27,12,31,20.40
2017,05,27,12,32,20.40
2017,05,27,12,33,20.50
2017,05,27,12,34,20.60
2017,05,27,12,35,20.70
2017,05,27,12,36,20.70
2017,05,27,12,37,20.80
2017,05,27,12,38,20.70
2017,05,27,12,39,20.70
2017,05,27,12,40,20.60
2017,05,27,12,41,20.50
2017,05,27,12,42,20.50
2017,05,27,12,43,20.50
2017,05,27,12,44,20.60
2017,05,27,12,45,20.50
2017,05,27,12,46,20.50
2017,05,27,12,47,20.50
2017,05,27,12,48,20.60
2017,05,27,12,49,20.60
2017,05,27,12,50,20.70
2017,05,27,12,51,20.70
2017,05,27,12,52,20.80
2017,05,27,12,53,20.90
2017,05,27,12,54,20.90
2017,05,27,12,55,21.00
2017,05,27,12,56,20.90
2017,05,27,12,57,20.90
2017,05,27,12,58,20.90
2017,05,27,12,59,20.80
2017,05,27,13,00,20.80
2017,05,27,13,01,20.80
2017,05,27,13,02,20.90
2017,05,27,13,03,20.90
2017,05,27,13,04,20.90
2017,05,27,13,05,20.90
2017,05,27,13,06,20.90
2017,05,27,13,07,20.90
2017,05,27,13,08,20.90
2017,05,27,13,09,20.80
2017,05,27,13,10,20.80
2017,05,27,13,11,20.70
2017,05,27,13,12,20.70
2017,05,27,13,13,20.80
2017,05,27,13,14,20.80
2017,05,27,13,15,20.90
2017,05,27,13,16,21.00
2017,05,27,13,17,21.10
2017,05,27,13,18,21.20
2017,05,27,13,19,21.20
2017,05,27,13,20,21.30
2017,05,27,13,21,21.30
2017,05,27,13,22,21.40
2017,05,27,13,23,21.40
2017,05,27,13,24,21.40
2017,05,27,13,25,21.50
2017,05,27,13,26,21.70
2017,05,27,13,27,21.60
2017,05,27,13,28,21.50
2017,05,27,13,29,21.50
2017,05,27,13,30,21.60
2017,05,27,13,31,21.60
2017,05,27,13,32,21.60
2017,05,27,13,33,21.70
2017,05,27,13,34,21.70
2017,05,27,13,35,21.80
2017,05,27,13,36,21.90
2017,05,27,13,37,22.00
2017,05,27,13,38,22.00
2017,05,27,13,39,22.10
2017,05,27,13,40,22.10
2017,05,27,13,41,22.20
2017,05,27,13,42,22.20
2017,05,27,13,43,22.10
2017,05,27,13,44,22.00
2017,05,27,13,45,22.00
2017,05,27,13,46,21.90
2017,05,27,13,47,21.90
2017,05,27,13,48,22.00
2017,05,27,13,49,22.10
2017,05,27,13,50,22.10
2017,05,27,13,51,22.10
2017,05,27,13,52,22.10
2017,05,27,13,53,22.10
2017,05,27,13,54,22.10
2017,05,27,13,55,22.00
2017,05,27,13,56,22.00
2017,05,27,13,57,22.00
2017,05,27,13,58,22.00
2017,05,27,13,59,22.00
2017,05,27,14,00,22.10
2017,05,27,14,01,22.20
2017,05,27,14,02,22.30
2017,05,27,14,03,22.40
2017,05,27,14,04,22.40
2017,05,27,14,05,22.40
2017,05,27,14,06,22.50
2017,05,27,14,07,22.50
2017,05,27,14,08,22.40
2017,05,27,14,09,22.50
2017,05,27,14,10,22.60
2017,05,27,14,11,22.60
2017,05,27,14,12,22.70
2017,05,27,14,13,22.70
2017,05,27,14,14,22.80
2017,05,27,14,15,22.80
2017,05,27,14,16,22.80
2017,05,27,14,17,22.80
2017,05,27,14,18,22.80
2017,05,27,14,19,22.70
2017,05,27,14,20,22.60
2017,05,27,14,21,22.60
2017,05,27,14,22,22.60
2017,05,27,14,23,22.60
2017,05,27,14,24,22.60
2017,05,27,14,25,22.60
2017,05,27,14,26,22.70
2017,05,27,14,27,22.70
2017,05,27,14,28,22.70
2017,05,27,14,29,22.70
2017,05,27,14,30,22.70
2017,05,27,14,31,22.80
2017,05,27,14,32,22.80
2017,05,27,14,33,22.90
2017,05,27,14,34,22.90
2017,05,27,14,35,22.90
2017,05,27,14,36,22.90
2017,05,27,14,37,22.80
2017,05,27,14,38,22.80
2017,05,27,14,39,22.70
2017,05,27,14,40,22.60
2017,05,27,14,41,22.60
2017,05,27,14,42,22.60
2017,05,27,14,43,22.60
2017,05,27,14,44,22.70
2017,05,27,14,45,22.70
2017,05,27,14,46,22.70
2017,05,27,14,47,22.80
2017,05,27,14,48,22.90
2017,05,27,14,49,23.00
2017,05,27,14,50,23.00
2017,05,27,14,51,23.10
2017,05,27,14,52,23.10
2017,05,27,14,53,23.00
2017,05,27,14,54,22.90
2017,05,27,14,55,22.90
2017,05,27,14,56,22.80
2017,05,27,14,57,22.80
2017,05,27,14,58,22.90
2017,05,27,14,59,23.00
2017,05,27,15,00,23.10
2017,05,27,15,01,23.20
2017,05,27,15,02,23.20
2017,05,27,15,03,23.30
2017,05,27,15,04,23.40
2017,05,27,15,05,23.50
2017,05,27,15,06,23.60
2017,05,27,15,07,23.70
2017,05,27,15,08,23.70
2017,05,27,15,09,23.70
2017,05,27,15,10,23.80
2017,05,27,15,11,23.90
2017,05,27,15,12,24.00
2017,05,27,15,13,24.00
2017,05,27,15,14,24.00
2017,05,27,15,15,24.00
2017,05,27,15,16,24.00
2017,05,27,15,17,24.00
2017,05,27,15,18,24.00
2017,05,27,15,19,24.00
2017,05,27,15,20,24.10
2017,05,27,15,21,24.10
2017,05,27,15,22,24.10
2017,05,27,15,23,24.20
2017,05,27,15,24,24.30
2017,05,27,15,25,24.30
2017,05,27,15,26,24.30
2017,05,27,15,27,24.30
2017,05,27,15,28,24.30
2017,05,27,15,29,24.30
2017,05,27,15,30,24.30
2017,05,27,15,31,24.30
2017,05,27,15,32,24.30
2017,05,27,15,33,24.40
2017,05,27,15,34,24.30
2017,05,27,15,35,24.30
2017,05,27,15,36,24.40
2017,05,27,15,37,24.40
2017,05,27,15,38,24.50
2017,05,27,15,39,24.60
2017,05,27,15,40,24.60
2017,05,27,15,41,24.60
2017,05,27,15,42,24.60
2017,05,27,15,43,24.60
2017,05,27,15,44,24.60
2017,05,27,15,45,24.50
2017,05,27,15,46,24.40
2017,05,27,15,47,24.40
2017,05,27,15,48,24.50
2017,05,27,15,49,24.60
2017,05,27,15,50,24.60
2017,05,27,15,51,24.70
2017,05,27,15,52,24.70
2017,05,27,15,53,24.70
2017,05,27,15,54,24.70
2017,05,27,15,55,24.60
2017,05,27,15,56,24.60
2017,05,27,15,57,24.50
2017,05,27,15,58,24.40
2017,05,27,15,59,24.40
2017,05,27,16,00,24.40
2017,05,27,16,01,24.50
2017,05,27,16,02,24.50
2017,05,27,16,03,24.50
2017,05,27,16,04,24.60
2017,05,27,16,05,24.60
2017,05,27,16,06,24.60
2017,05,27,16,07,24.50
2017,05,27,16,08,24.40
2017,05,27,16,09,24.40
2017,05,27,16,10,24.40
2017,05,27,16,11,24.50
2017,05,27,16,12,24.60
2017,05,27,16,13,24.60
2017,05,27,16,14,24.70
2017,05,27,16,15,24.70
2017,05,27,16,16,24.70
2017,05,27,16,17,24.70
2017,05,27,16,18,24.70
2017,05,27,16,19,24.70
2017,05,27,16,20,24.70
2017,05,27,16,21,24.60
2017,05,27,16,22,24.60
2017,05,27,16,23,24.50
2017,05,27,16,24,24.50
2017,05,27,16,25,24.50
2017,05,27,16,26,24.60
2017,05,27,16,27,24.60
2017,05,27,16,28,24.60
2017,05,27,16,29,24.50
2017,05,27,16,30,24.60
2017,05,27,16,31,24.70
2017,05,27,16,32,24.80
2017,05,27,16,33,24.90
2017,05,27,16,34,24.90
2017,05,27,16,35,24.90
2017,05,27,16,36,24.90
2017,05,27,16,37,24.90
2017,05,27,16,38,24.90
2017,05,27,16,39,24.90
2017,05,27,16,40,24.90
2017,05,27,16,41,24.90
2017,05,27,16,42,25.00
2017,05,27,16,43,25.00
2017,05,27,16,44,25.10
2017,05,27,16,45,25.10
2017,05,27,16,46,25.10
2017,05,27,16,47,25.10
2017,05,27,16,48,25.10
2017,05,27,16,49,25.00
2017,05,27,16,50,25.00
2017,05,27,16,51,24.90
2017,05,27,16,52,24.90
2017,05,27,16,53,24.90
2017,05,27,16,54,24.90
2017,05,27,16,55,24.90
2017,05,27,16,56,24.90
2017,05,27,16,57,24.90
2017,05,27,16,58,24.90
2017,05,27,16,59,24.90
2017,05,27,17,00,25.00
2017,05,27,17,01,25.00
2017,05,27,17,02,25.00
2017,05,27,17,03,25.10
2017,05,27,17,04,25.20
2017,05,27,17,05,25.30
2017,05,27,17,06,25.40
2017,05,27,17,07,25.50
2017,05,27,17,08,25.60
2017,05,27,17,09,25.60
2017,05,27,17,10,25.60
2017,05,27,17,11,25.60
2017,05,27,17,12,25.60
2017,05,27,17,13,25.60
2017,05,27,17,14,25.60
2017,05,27,17,15,25.60
2017,05,27,17,16,25.50
2017,05,27,17,17,25.50
2017,05,27,17,18,25.40
2017,05,27,17,19,25.30